Temperature
19 18 18 18 18 18 18 18 18 18 18 18 18 18 18 18 18 18 18 18 18 18 18 18 18 18 18 18 18 18 18 18 18 18 17 17 17 17 17 17 17 17 17
19 18 18 18 18 18 18 18 18 18 18 18 18 18 18 18 18 18 18 18 18 18 18 18 18 18 18 18 18 18 18 17 17 17 17 17 17 17 17 17 16 17 17
18 18 18 18 18 18 18 18 18 18 18 18 18 18 18 18 18 18 18 18 18 18 18 18 18 18 18 18 18 18 17 17 17 17 17 16 17 17 17 17 17 17 17
19 18 17 18 18 18 18 18 18 18 18 18 18 18 18 18 18 18 18 18 18 18 18 18 18 18 18 18 18 18 17 18 17 17 17 16 16 17 17 17 17 17 17
18 18 18 18 18 18 18 18 18 18 18 18 18 18 18 18 18 18 18 18 18 18 18 18 18 18 18 18 17 17 17 17 17 17 16 16 17 17 17 17 17 17 17
18 18 17 18 18 18 18 18 18 18 18 18 18 18 18 18 18 18 18 18 18 18 18 18 18 18 18 17 18 18 17 17 17 17 16 16 16 17 17 17 17 16 17
19 18 17 18 18 18 18 18 18 18 18 18 18 18 18 18 18 18 18 18 18 18 18 18 18 18 18 17 17 17 17 17 17 17 16 16 17 17 17 17 17 16 16
19 18 17 18 18 18 18 18 18 18 18 18 18 18 18 18 18 18 18 17 18 18 17 17 17 17 17 17 17 17 17 17 17 16 16 16 17 17 17 17 17 16 16
19 18 18 17 18 18 18 18 18 18 18 18 18 18 18 18 18 18 18 17 18 17 17 17 17 17 17 17 17 17 17 17 17 17 16 16 17 17 17 17 17 16 16
19 19 18 18 17 17 17 18 18 18 18 18 18 18 18 18 18 18 17 18 18 17 17 17 17 17 17 17 17 17 17 17 17 17 16 16 17 17 17 17 16 16 16
18 18 19 18 18 17 17 17 17 18 18 18 17 18 17 17 17 17 17 18 17 17 17 17 17 17 17 17 17 17 17 17 17 17 16 17 17 17 17 17 16 16 16
18 18 18 18 18 18 18 17 17 17 17 17 17 17 17 17 17 17 17 17 17 17 17 17 17 17 17 17 17 17 17 17 17 17 17 17 17 17 17 16 16 16 16
19 18 18 18 18 18 18 18 17 17 17 17 17 17 17 17 17 17 17 17 17 17 17 17 17 17 17 17 17 17 17 17 17 17 17 17 17 17 17 16 16 16 16
19 18 18 18 18 18 18 18 18 18 18 17 17 17 17 17 17 17 17 17 17 17 17 17 17 17 17 17 17 17 17 17 17 17 17 17 17 17 17 17 16 16 16
19 18 18 18 18 18 18 18 18 18 18 18 17 17 17 17 17 17 17 17 17 17 17 17 17 17 17 17 17 17 17 17 17 17 17 17 17 17 17 17 16 16 16
19 19 18 18 18 18 18 18 18 18 18 17 17 17 17 17 17 17 17 17 17 17 17 17 17 17 17 17 17 17 17 17 17 16 17 17 17 17 17 17 17 16 16
19 19 19 19 18 18 18 18 18 18 17 17 17 17 17 17 17 17 17 17 17 17 17 17 17 17 17 17 17 17 17 17 17 16 16 16 17 17 17 17 17 16 16
19 19 19 19 19 19 18 18 18 18 17 17 17 17 17 17 17 17 17 17 17 17 17 17 17 17 17 17 17 17 17 17 17 17 17 16 16 16 17 17 17 17 16
20 19 19 19 19 19 18 18 18 17 17 17 17 17 17 17 17 17 17 17 17 17 17 17 17 17 17 17 17 17 17 17 17 17 17 17 17 16 16 17 17 17 17
20 19 19 19 19 19 18 18 18 18 17 17 17 17 17 17 17 17 17 17 17 17 17 17 17 17 17 17 18 18 17 17 17 17 17 17 17 17 17 16 16 17 17
20 20 19 19 19 19 18 18 18 18 17 17 17 17 17 17 17 17 17 17 17 17 17 17 17 17 17 17 17 17 18 18 17 17 17 17 17 17 16 16 16 16 16
20 20 20 19 19 19 19 18 18 18 17 17 17 17 17 17 17 17 17 17 17 17 17 17 17 17 17 17 17 18 18 18 18 18 17 17 17 17 17 17 16 16 16
20 20 20 20 19 19 19 18 18 18 18 17 17 17 17 17 17 17 17 17 17 17 17 17 17 17 17 17 17 17 18 19 18 18 17 17 17 17 17 17 16 16 16
21 20 20 20 19 19 19 18 18 18 18 18 17 17 17 17 17 17 17 17 17 17 17 17 17 17 17 17 17 17 17 17 18 18 17 17 17 17 17 16 16 16 16
21 20 20 20 20 19 19 18 18 18 18 17 17 17 17 17 17 17 17 17 17 17 17 17 17 17 17 17 17 17 17 17 17 17 17 17 17 17 16 16 16 16 16
21 20 20 20 20 19 19 18 18 18 18 18 18 17 17 17 17 17 17 17 17 17 17 17 17 17 17 17 17 17 17 17 17 17 17 17 17 17 16 16 16 16 16
Wind_Speed
8 10 11 10 11 11 12 12 12 13 13 13 13 13 13 14 14 14 14 14 14 14 14 14 14 14 14 14 14 14 14 14 15 15 16 16 15 16 15 15 15 15 17
10 12 11 10 11 11 11 12 12 12 12 12 13 13 13 13 13 13 13 13 14 13 14 14 15 15 14 14 14 14 14 14 14 14 16 16 15 14 14 13 12 15 15
10 12 12 10 10 11 11 12 12 12 12 12 12 12 12 12 13 13 13 13 13 13 14 14 14 14 14 14 14 14 13 13 13 13 12 13 14 14 14 15 15 16 14
10 11 11 11 10 10 11 11 11 11 11 11 12 12 12 12 12 12 12 13 13 13 14 14 14 14 14 14 14 14 13 12 11 9 9 12 13 15 14 15 15 15 14
10 11 12 10 10 10 10 11 11 11 11 11 11 11 11 12 12 12 12 12 13 13 13 13 13 13 13 13 13 13 13 12 9 7 10 12 13 14 14 14 14 14 14
10 10 13 9 10 10 10 10 10 11 11 11 11 11 11 12 12 12 12 12 13 13 13 13 12 12 12 12 13 13 11 9 8 9 10 11 13 13 13 13 13 13 13
10 10 13 10 9 10 9 10 10 11 11 11 11 11 12 12 12 12 12 12 12 12 12 11 11 11 12 12 12 11 9 5 7 10 9 10 12 13 12 12 13 13 13
10 10 13 10 9 9 9 9 9 10 10 10 11 11 11 12 12 12 12 11 11 11 11 11 11 10 11 11 11 10 7 4 9 9 9 11 13 12 12 12 12 12 12
9 9 9 11 11 9 9 9 9 9 9 10 10 11 11 11 11 11 11 11 11 10 10 10 9 9 10 10 9 8 6 1 6 8 9 11 12 12 11 11 11 11 11
7 7 8 8 8 9 10 9 8 8 9 9 9 9 10 11 11 10 11 10 10 9 9 9 9 9 10 10 9 8 6 5 6 8 8 12 12 11 10 10 10 10 10
6 5 5 7 7 6 8 9 9 9 7 7 9 7 5 7 9 9 11 9 9 8 9 9 8 9 9 10 9 7 6 4 6 6 8 13 11 10 9 9 9 9 9
7 6 5 4 6 5 5 6 5 6 6 4 5 5 5 5 5 8 10 8 8 8 8 8 7 7 6 8 9 8 4 5 5 6 9 11 9 9 9 9 8 8 9
7 6 6 5 4 4 3 3 3 3 4 4 4 4 4 4 5 5 6 8 7 7 6 7 6 4 3 4 3 4 3 3 4 5 10 10 8 8 8 8 8 8 8
6 6 5 5 4 3 2 3 3 3 3 3 4 2 4 3 2 3 2 4 4 4 3 3 3 3 3 3 2 3 3 2 3 4 9 9 7 7 7 8 7 8 8
7 6 5 5 5 4 2 2 2 1 1 2 2 2 1 2 2 3 2 1 2 3 4 3 2 2 2 2 2 2 2 2 2 3 7 9 7 7 7 7 8 8 8
7 7 6 6 5 5 4 2 1 2 1 1 2 2 1 1 1 2 3 2 1 2 1 1 2 3 2 1 2 2 2 2 3 2 4 8 9 8 7 7 8 8 9
7 7 6 6 6 5 4 4 3 2 2 1 1 2 2 1 1 2 1 2 2 2 2 2 2 2 3 3 2 3 3 2 2 2 3 4 7 10 9 8 8 8 9
7 7 7 6 6 6 4 4 3 2 2 2 2 2 2 2 2 3 2 2 2 3 3 2 3 3 2 3 2 2 2 3 3 4 4 5 5 6 10 11 9 9 9
7 7 7 6 6 6 5 4 4 3 3 3 3 2 2 3 3 4 3 2 3 3 3 3 2 3 3 3 3 3 3 3 3 4 4 5 5 5 6 10 11 11 11
7 7 7 7 6 6 5 5 4 4 4 4 4 3 3 3 4 4 4 3 4 3 3 3 3 3 4 4 4 3 4 4 4 4 5 5 5 6 6 6 8 10 12
8 8 8 7 7 6 5 5 4 4 4 4 4 4 4 5 4 4 4 3 4 4 4 5 4 5 4 3 3 4 4 5 4 4 4 4 4 5 5 5 6 7 8
8 8 8 8 7 7 5 4 3 3 3 3 3 3 5 5 5 4 4 4 4 4 5 5 5 4 4 4 3 3 3 3 4 4 3 4 4 4 4 5 5 6 7
8 8 7 7 6 6 5 4 3 3 3 3 3 3 4 4 4 4 4 5 4 5 5 5 5 6 5 4 4 3 3 2 1 3 2 3 3 3 4 4 5 5 6
8 7 7 7 6 6 6 5 4 4 3 3 2 2 2 3 4 5 5 5 5 5 5 6 5 5 5 5 4 4 5 3 3 2 3 3 3 3 3 3 3 3 4
8 7 7 6 6 5 5 4 4 4 3 2 2 2 3 3 3 4 5 5 5 5 5 5 4 5 5 5 4 4 4 4 5 4 3 2 2 2 2 2 2 2 2
8 7 7 7 6 5 5 4 4 3 3 2 2 2 2 2 2 3 4 4 4 4 5 5 5 5 5 5 4 4 4 4 4 4 4 3 2 1 1 1 2 2 2
Wind_Direction
111 104 102 98 96 95 95 96 95 96 97 97 96 97 98 99 98 97 96 97 98 100 102 104 107 107 109 109 109 109 111 112 115 117 115 113 114 117 120 124 123 115 117
115 109 106 100 97 96 97 98 98 97 97 97 97 97 98 100 99 98 98 99 100 101 102 104 106 107 107 108 109 111 112 113 117 120 122 120 118 119 120 116 109 115 122
118 115 118 103 100 98 98 99 99 98 97 97 96 96 97 99 100 99 100 100 102 102 102 103 103 103 104 105 106 109 112 114 118 124 134 126 121 118 118 115 113 120 122
120 118 109 107 103 100 99 100 100 99 97 96 94 94 94 95 97 98 100 100 101 101 103 104 104 104 103 104 106 108 112 118 123 144 132 119 122 120 122 122 121 123 124
113 111 110 113 107 103 100 99 99 98 97 96 95 95 95 97 98 98 99 100 100 101 103 104 105 105 105 106 106 108 111 119 136 146 110 112 114 122 126 127 126 126 126
127 123 113 115 110 105 100 99 100 97 96 95 95 94 94 96 99 99 100 101 102 101 102 103 105 106 108 109 109 110 115 132 157 114 111 115 117 126 128 127 127 127 127
123 118 118 117 113 107 104 101 97 96 94 93 93 92 93 95 97 98 99 100 102 102 101 102 105 108 111 112 112 115 122 139 114 106 110 108 111 122 126 127 128 127 127
125 120 118 120 113 109 107 104 101 97 95 94 94 93 94 95 96 98 99 102 103 103 101 102 104 110 114 114 115 119 132 165 116 107 106 105 111 122 124 125 127 129 128
122 124 131 133 128 122 112 107 104 99 98 97 96 97 98 98 98 100 101 103 106 105 103 103 104 108 114 117 120 121 124 214 116 113 111 109 118 124 125 126 129 132 133
130 128 131 127 128 136 128 116 109 105 103 102 100 102 109 114 112 119 116 104 106 106 104 104 104 110 114 117 121 125 147 202 117 114 112 115 124 129 129 131 131 134 135
135 132 135 132 132 131 125 127 132 128 124 135 121 126 155 129 120 126 96 106 109 108 106 104 109 119 129 129 129 148 184 137 110 105 104 115 132 135 135 136 137 139 142
152 152 143 139 130 132 126 134 136 136 130 129 113 126 118 99 95 104 110 112 114 117 120 114 127 155 175 138 145 182 148 123 121 116 112 126 139 142 143 142 145 147 150
159 157 149 145 150 149 131 136 117 119 131 139 122 128 114 129 132 127 133 138 139 155 142 137 166 138 113 101 129 132 113 118 113 118 121 136 148 153 154 155 159 162 161
162 161 152 145 157 155 146 137 154 166 156 136 135 174 141 139 131 116 133 133 149 139 134 148 133 118 107 114 121 125 140 124 113 113 126 143 158 167 168 170 173 173 172
172 170 161 163 166 166 169 200 160 153 148 138 139 142 170 168 158 145 133 140 148 144 159 167 144 135 152 158 157 154 144 116 124 138 138 154 171 179 182 184 186 187 186
183 180 174 182 182 180 181 190 178 174 194 182 163 141 200 173 165 191 180 182 176 170 138 183 163 175 189 165 174 169 196 162 147 179 160 163 177 187 194 197 197 196 196
188 186 186 187 188 190 194 198 193 190 189 215 192 186 204 202 186 231 210 203 190 177 180 206 203 201 204 194 185 192 199 203 174 189 194 185 181 186 194 201 206 208 210
193 189 194 195 186 190 199 203 203 205 198 229 247 231 220 236 224 241 237 224 215 220 211 209 226 222 216 222 211 219 207 194 204 209 208 204 211 197 189 195 206 212 216
198 195 199 204 197 195 197 201 203 206 223 241 246 249 240 246 245 244 250 257 248 236 231 237 208 243 229 236 223 214 228 221 214 218 226 223 214 219 205 184 199 212 219
196 197 204 207 203 200 202 201 207 214 220 234 241 247 257 249 247 253 243 238 250 242 238 238 238 239 243 240 254 234 232 232 232 226 231 228 224 224 225 210 203 208 214
194 197 204 209 201 203 204 209 208 213 218 223 235 239 249 255 252 254 263 239 246 240 248 244 244 233 234 233 245 240 229 228 229 231 236 237 230 230 234 232 234 233 213
194 198 202 205 203 203 201 208 217 231 236 233 242 242 247 249 251 243 248 253 247 247 244 248 241 255 247 228 249 257 244 213 212 217 221 230 239 232 233 234 239 242 253
193 195 195 199 201 204 201 206 211 213 233 231 238 244 249 248 247 259 260 262 260 249 241 244 238 242 248 238 242 260 268 259 245 187 206 229 231 236 244 241 238 237 242
189 187 189 191 195 194 195 206 213 220 230 238 246 252 257 246 249 252 255 258 259 258 250 245 236 241 244 246 235 243 265 293 270 239 203 194 211 237 257 264 261 247 243
180 177 179 180 183 186 193 201 215 226 232 235 235 244 257 248 247 256 260 258 250 251 251 252 249 245 239 244 246 242 248 248 249 256 255 231 220 228 247 265 278 277 267
170 171 172 172 176 180 187 196 210 220 234 248 253 263 257 248 242 252 258 256 250 249 248 247 245 239 243 246 247 244 247 251 250 249 251 246 244 235 248 274 267 273 283
Height
1550 1549 1547 1547 1548 1548 1548 1548 1548 1548 1548 1549 1549 1549 1549 1549 1549 1550 1550 1551 1551 1552 1553 1554 1554 1555 1556 1557 1557 1558 1559 1560 1561 1562 1562 1563 1564 1565 1566 1567 1568 1569 1570
1551 1550 1549 1549 1550 1550 1550 1550 1551 1551 1551 1551 1551 1551 1552 1552 1552 1552 1553 1553 1554 1555 1555 1556 1557 1558 1558 1559 1560 1561 1561 1562 1563 1564 1565 1565 1566 1567 1568 1569 1570 1571 1572
1553 1552 1551 1551 1552 1552 1552 1553 1553 1553 1553 1553 1554 1554 1554 1554 1555 1555 1556 1556 1556 1557 1558 1559 1559 1560 1561 1562 1562 1563 1563 1564 1565 1566 1567 1568 1568 1569 1570 1570 1572 1573 1574
1555 1555 1554 1553 1554 1554 1555 1555 1555 1555 1556 1556 1556 1556 1556 1557 1557 1558 1558 1558 1559 1560 1560 1561 1562 1562 1563 1564 1564 1565 1565 1566 1567 1568 1570 1570 1570 1571 1571 1572 1573 1575 1575
1556 1556 1555 1555 1556 1556 1557 1557 1557 1558 1558 1558 1558 1559 1559 1559 1559 1560 1560 1561 1561 1562 1562 1563 1564 1564 1565 1566 1566 1567 1567 1568 1569 1570 1572 1572 1572 1572 1573 1574 1575 1576 1577
1558 1559 1557 1557 1558 1558 1559 1559 1559 1560 1560 1560 1561 1561 1561 1561 1562 1562 1563 1563 1564 1564 1565 1565 1566 1567 1567 1568 1568 1568 1569 1570 1571 1573 1573 1574 1574 1574 1575 1576 1577 1578 1579
1560 1561 1560 1559 1560 1560 1561 1561 1561 1562 1562 1563 1563 1563 1563 1563 1564 1564 1565 1565 1566 1566 1567 1568 1568 1569 1569 1570 1570 1570 1571 1572 1575 1575 1575 1576 1575 1576 1577 1578 1578 1579 1580
1562 1563 1561 1561 1561 1562 1563 1563 1563 1564 1564 1564 1565 1565 1565 1565 1566 1566 1567 1567 1568 1569 1569 1570 1570 1571 1571 1572 1572 1572 1573 1574 1576 1577 1577 1577 1576 1577 1578 1579 1580 1581 1582
1564 1564 1565 1565 1564 1564 1564 1565 1565 1566 1566 1566 1566 1567 1567 1567 1568 1568 1569 1569 1570 1570 1571 1572 1572 1573 1573 1573 1574 1574 1575 1575 1579 1579 1579 1578 1578 1579 1580 1580 1581 1582 1583
1565 1566 1566 1567 1567 1567 1567 1566 1567 1567 1568 1568 1568 1569 1569 1569 1570 1570 1571 1571 1572 1572 1573 1573 1574 1574 1575 1575 1576 1576 1577 1578 1580 1581 1580 1580 1579 1580 1581 1582 1583 1583 1584
1565 1567 1568 1569 1568 1569 1570 1568 1569 1569 1569 1570 1570 1570 1571 1573 1573 1573 1573 1573 1573 1574 1575 1575 1576 1576 1576 1577 1577 1578 1578 1581 1582 1582 1581 1581 1581 1581 1582 1583 1584 1584 1585
1566 1567 1568 1569 1569 1570 1571 1571 1572 1572 1572 1572 1572 1573 1574 1573 1574 1575 1574 1575 1575 1576 1576 1577 1578 1578 1579 1580 1579 1580 1582 1582 1583 1583 1582 1582 1582 1582 1583 1584 1585 1585 1586
1567 1568 1569 1569 1569 1571 1571 1572 1573 1573 1573 1574 1573 1574 1574 1575 1576 1577 1577 1577 1577 1578 1579 1579 1580 1581 1582 1582 1582 1583 1583 1584 1584 1584 1583 1582 1583 1583 1584 1584 1585 1586 1587
1567 1568 1569 1569 1570 1571 1572 1573 1573 1574 1574 1575 1574 1575 1576 1576 1577 1577 1577 1578 1579 1579 1580 1581 1581 1582 1582 1582 1582 1583 1583 1584 1585 1584 1583 1583 1583 1584 1584 1585 1585 1586 1587
1567 1568 1569 1569 1570 1570 1571 1572 1574 1574 1575 1575 1575 1575 1575 1577 1577 1578 1577 1578 1580 1580 1580 1581 1581 1582 1582 1582 1583 1583 1584 1584 1584 1585 1584 1583 1583 1584 1584 1585 1585 1586 1587
1567 1568 1569 1569 1569 1570 1571 1572 1573 1574 1574 1575 1575 1575 1575 1577 1577 1578 1578 1578 1579 1580 1580 1581 1581 1581 1582 1582 1583 1583 1583 1584 1583 1584 1584 1583 1583 1583 1584 1584 1585 1585 1586
1567 1568 1568 1569 1569 1570 1571 1572 1573 1574 1575 1575 1575 1575 1575 1576 1576 1577 1578 1578 1579 1579 1579 1580 1581 1581 1582 1582 1582 1582 1583 1583 1583 1583 1584 1584 1584 1583 1583 1584 1584 1585 1585
1566 1567 1568 1569 1569 1569 1570 1571 1573 1573 1574 1574 1575 1575 1575 1575 1576 1576 1577 1578 1578 1579 1579 1579 1580 1581 1581 1581 1582 1582 1582 1582 1582 1582 1583 1583 1583 1584 1583 1583 1583 1584 1584
1566 1566 1567 1568 1568 1569 1569 1570 1571 1571 1572 1573 1573 1574 1574 1574 1575 1575 1576 1577 1577 1578 1578 1579 1579 1580 1580 1580 1581 1581 1581 1581 1581 1581 1582 1582 1582 1582 1582 1582 1582 1582 1583
1565 1565 1566 1567 1568 1568 1568 1568 1569 1570 1571 1571 1572 1572 1573 1573 1573 1574 1575 1575 1576 1577 1577 1577 1577 1578 1578 1579 1580 1580 1580 1580 1580 1580 1580 1581 1581 1581 1581 1581 1581 1581 1581
1563 1564 1565 1566 1566 1567 1567 1568 1568 1569 1569 1570 1571 1571 1571 1572 1572 1572 1573 1573 1574 1575 1575 1576 1576 1577 1577 1577 1578 1578 1578 1578 1578 1578 1579 1579 1580 1580 1579 1579 1579 1580 1580
1561 1562 1563 1564 1565 1565 1566 1567 1567 1568 1568 1569 1569 1569 1569 1570 1570 1570 1570 1571 1571 1572 1572 1573 1574 1575 1575 1576 1576 1576 1576 1577 1576 1576 1576 1577 1577 1578 1577 1577 1577 1577 1577
1560 1561 1562 1563 1564 1564 1565 1565 1565 1566 1566 1567 1567 1567 1568 1568 1568 1568 1568 1568 1569 1570 1570 1571 1571 1572 1573 1574 1574 1575 1575 1574 1575 1575 1574 1575 1575 1575 1575 1575 1575 1575 1574
1558 1559 1560 1561 1562 1563 1563 1564 1564 1564 1565 1565 1565 1565 1565 1565 1566 1566 1566 1566 1566 1567 1567 1568 1569 1570 1570 1571 1572 1572 1573 1573 1573 1573 1573 1573 1573 1573 1573 1573 1573 1572 1572
1557 1558 1559 1560 1561 1562 1562 1562 1562 1563 1564 1564 1563 1563 1563 1564 1563 1563 1563 1564 1564 1564 1565 1565 1566 1567 1568 1569 1570 1570 1570 1570 1571 1571 1571 1571 1571 1571 1571 1570 1570 1570 1570
1556 1557 1558 1559 1560 1560 1561 1561 1561 1561 1562 1562 1562 1562 1562 1562 1562 1562 1562 1561 1562 1562 1563 1563 1564 1565 1565 1566 1566 1567 1568 1568 1568 1568 1568 1568 1569 1569 1568 1568 1568 1568 1567